Change the Weather History Date:

Tuesday, June 24, 2014

  Actual Average Record
Temperature  
Mean Temperature 74 °F -  
Max Temperature 93 °F 83 °F 95 °F (1990)
Min Temperature 55 °F 52 °F 48 °F (2003)
Cooling Degree Days 9    
Growing Degree Days 24 (Base 50)    
Moisture  
Dew Point 41 °F    
Average Humidity 38    
Maximum Humidity 63    
Minimum Humidity 11    
Precipitation  
Precipitation 0.00 in - - ()
Sea Level Pressure  
Sea Level Pressure 29.96 in    
Wind  
Wind Speed 4 mph (SSE)    
Max Wind Speed 9 mph    
Max Gust Speed -    
Visibility 11 miles    
Events      
Averages and records for this station are not official NWS values.
T = Trace of Precipitation, MM = Missing Value Source: NWS Daily Summary

Daily Weather History Graph

Daily Weather History Graph

Search for Another Location

Airport or City:

Trip Planner

Search our weather history database for the weather conditions in past years. The results will help you decide how hot, cold, wet, or windy it might be!

Date:

Astronomy

Jun. 24, 2014 Rise Set
Actual Time 5:58 AM MDT 9:00 PM MDT
Civil Twilight 5:25 AM MDT 9:33 PM MDT
Nautical Twilight 4:43 AM MDT 10:15 PM MDT
Astronomical Twilight 3:54 AM MDT 11:04 PM MDT
Moon 4:07 AM MDT (6/24) 6:42 PM MDT (6/24)
Length of Visible Light 16h 08m
Length of Day
15h 02m
Waning Crescent, 6% of the Moon is Illuminated
Jun 24
Waning Crescent
Jun 27
New
Jul 5
First Quarter
Jul 12
Full
Jul 18
Last Quarter

Hourly Weather History & Observations

Time (MDT) Temp. Dew Point Humidity Pressure Visibility Wind Dir Wind Speed Gust Speed Precip Events Conditions
12:15 AM 62.6 °F 48.2 °F 59% 29.98 in 7.0 mi SSW 3.5 mph - N/A   Clear
12:35 AM 62.6 °F 44.6 °F 52% 29.99 in 9.0 mi Calm Calm - N/A   Clear
12:55 AM 62.6 °F 44.6 °F 52% 29.99 in 7.0 mi SSW 3.5 mph - N/A   Clear
1:15 AM 62.6 °F 42.8 °F 48% 29.99 in 7.0 mi West 5.8 mph - N/A   Clear
1:35 AM 64.4 °F 44.6 °F 49% 29.99 in 7.0 mi West 3.5 mph - N/A   Clear
1:55 AM 66.2 °F 44.6 °F 46% 29.99 in 9.0 mi WNW 3.5 mph - N/A   Clear
2:15 AM 64.4 °F 48.2 °F 56% 29.99 in 7.0 mi Calm Calm - N/A   Clear
2:35 AM 64.4 °F 46.4 °F 52% 29.99 in 8.0 mi NW 5.8 mph - N/A   Clear
2:55 AM 62.6 °F 48.2 °F 59% 29.99 in 8.0 mi NNW 3.5 mph - N/A   Clear
3:15 AM 62.6 °F 48.2 °F 59% 29.99 in 9.0 mi SE 3.5 mph - N/A   Clear
3:35 AM 62.6 °F 42.8 °F 48% 30.00 in 10.0 mi SSW 4.6 mph - N/A   Clear
3:55 AM 66.2 °F 39.2 °F 37% 30.00 in 10.0 mi Calm Calm - N/A   Clear
4:15 AM 62.6 °F 42.8 °F 48% 30.00 in 10.0 mi South 3.5 mph - N/A   Clear
4:35 AM 59.0 °F 44.6 °F 59% 30.00 in 10.0 mi Calm Calm - N/A   Clear
4:55 AM 57.2 °F 44.6 °F 63% 30.00 in 10.0 mi East 5.8 mph - N/A   Clear
5:15 AM 55.4 °F 42.8 °F 63% 30.00 in 10.0 mi Calm Calm - N/A   Clear
5:35 AM 59.0 °F 42.8 °F 55% 30.01 in 10.0 mi Calm Calm - N/A   Clear
5:55 AM 60.8 °F 42.8 °F 52% 30.01 in 10.0 mi South 5.8 mph - N/A   Clear
6:15 AM 59.0 °F 39.2 °F 48% 30.02 in 10.0 mi South 5.8 mph - N/A   Clear
6:35 AM 59.0 °F 39.2 °F 48% 30.03 in 10.0 mi South 8.1 mph - N/A   Clear
6:55 AM 57.2 °F 42.8 °F 59% 30.03 in 15.0 mi East 5.8 mph - N/A   Clear
8:47 AM 69.8 °F 44.6 °F 40% 30.05 in 15.0 mi SE 6.9 mph - N/A   Clear
9:59 AM 75.2 °F 42.8 °F 31% 30.04 in 15.0 mi Calm Calm - N/A   Scattered Clouds
10:52 AM 78.8 °F 46.4 °F 32% 30.03 in 15.0 mi WSW 5.8 mph - N/A   Scattered Clouds
11:57 AM 86.0 °F 33.8 °F 15% 30.02 in 15.0 mi ESE 6.9 mph - N/A   Clear
12:55 PM 87.8 °F 30.2 °F 13% 30.01 in 15.0 mi East 8.1 mph - N/A   Clear
1:52 PM 89.6 °F 30.2 °F 12% 29.98 in 15.0 mi ESE 4.6 mph - N/A   Clear
2:50 PM 89.6 °F 30.2 °F 12% 29.98 in 15.0 mi Variable 4.6 mph - N/A   Scattered Clouds
3:54 PM 93.2 °F 32.0 °F 11% 29.93 in 15.0 mi East 6.9 mph - N/A   Scattered Clouds
4:50 PM 91.4 °F 30.2 °F 11% 29.91 in 15.0 mi Calm Calm - N/A   Scattered Clouds
5:51 PM 91.4 °F 30.2 °F 11% 29.88 in 15.0 mi Variable 3.5 mph - N/A   Scattered Clouds
6:54 PM 89.6 °F 33.8 °F 14% 29.86 in 15.0 mi North - - N/A   Scattered Clouds
7:57 PM 87.8 °F 37.4 °F 17% 29.86 in 15.0 mi Variable 4.6 mph - N/A   Scattered Clouds
8:50 PM 80.6 °F 41.0 °F 24% 29.86 in 15.0 mi Variable 4.6 mph - N/A   Scattered Clouds
9:15 PM 75.2 °F 44.6 °F 34% 29.86 in 10.0 mi NNW 5.8 mph - N/A   Clear
9:35 PM 78.8 °F 42.8 °F 28% 29.87 in 10.0 mi NNE 5.8 mph - N/A   Clear
9:55 PM 78.8 °F 42.8 °F 28% 29.87 in 10.0 mi Calm Calm - N/A   Clear
10:15 PM 75.2 °F 50.0 °F 41% 29.88 in 10.0 mi WNW 6.9 mph - N/A   Clear
10:35 PM 73.4 °F 41.0 °F 31% 29.88 in 10.0 mi NW 6.9 mph - N/A   Clear
10:55 PM 71.6 °F 42.8 °F 35% 29.89 in 10.0 mi SE 9.2 mph - N/A   Clear
11:15 PM 75.2 °F 44.6 °F 34% 29.90 in 10.0 mi SE 3.5 mph - N/A   Clear
11:35 PM 73.4 °F 41.0 °F 31% 29.89 in 10.0 mi ESE 8.1 mph - N/A   Clear
11:55 PM 71.6 °F 42.8 °F 35% 29.90 in 10.0 mi ESE 4.6 mph - N/A   Clear